Weather History for Lafayette, LA

Change the Weather History Date:

Monday, May 20, 2013

  Actual Average Record
Temperature  
Mean Temperature 82 °F 78 °F  
Max Temperature 88 °F 87 °F 95 °F (1956)
Min Temperature 76 °F 68 °F 45 °F (1894)
Cooling Degree Days 17 13  
Month to date cooling degree days 120 209  
Year to date cooling degree days 292 463  
Growing Degree Days 32 (Base 50)    
Moisture  
Dew Point 72 °F    
Average Humidity 74    
Maximum Humidity 88    
Minimum Humidity 59    
Precipitation  
Precipitation 0.00 in 0.15 in 3.43 in (1955)
Month to date precipitation 3.92 2.92  
Year to date precipitation 30.31 20.76  
Sea Level Pressure  
Sea Level Pressure 29.95 in    
Wind  
Wind Speed 10 mph (South)    
Max Wind Speed 18 mph    
Max Gust Speed 24 mph    
Visibility 10 miles    
Events      
T = Trace of Precipitation, MM = Missing Value Source: NWS Daily Summary

Daily Weather History Graph

Daily Weather History Graph

Search for Another Location

Airport:

Trip Planner

Search our weather history database for the weather conditions in past years. The results will help you decide how hot, cold, wet, or windy it might be!

Date:

Astronomy

May. 20, 2013 Rise Set
Actual Time 6:11 AM CDT 7:58 PM CDT
Civil Twilight 5:44 AM CDT 8:24 PM CDT
Nautical Twilight 5:12 AM CDT 8:56 PM CDT
Astronomical Twilight 4:38 AM CDT 9:30 PM CDT
Moon 3:24 PM CDT (5/20) 2:45 AM CDT (5/20)
Length of Visible Light 14h 40m
Length of Day
13h 47m
Waxing Gibbous, 75% of the Moon is Illuminated
May 20
Waxing Gibbous
May 24
Full
May 31
Last Quarter
Jun 8
New
Jun 16
First Quarter

Hourly Weather History & Observations

Time (CDT) Temp. Heat Index Dew Point Humidity Pressure Visibility Wind Dir Wind Speed Gust Speed Precip Events Conditions
12:44 AM 78.8 °F - 73.4 °F 83% 29.95 in 10.0 mi SSE 8.1 mph - N/A   Overcast
12:53 AM 78.1 °F - 73.0 °F 84% 29.95 in 10.0 mi SSE 6.9 mph - N/A   Overcast
1:53 AM 77.0 °F - 73.0 °F 88% 29.94 in 10.0 mi South 8.1 mph - N/A   Overcast
2:53 AM 77.0 °F - 73.0 °F 88% 29.93 in 10.0 mi SSE 6.9 mph - N/A   Overcast
3:44 AM 77.0 °F - 71.6 °F 83% 29.93 in 10.0 mi South 10.4 mph 17.3 mph N/A   Scattered Clouds
3:53 AM 77.0 °F - 72.0 °F 84% 29.93 in 10.0 mi South 8.1 mph - N/A   Scattered Clouds
4:53 AM 77.0 °F - 72.0 °F 84% 29.93 in 10.0 mi South 9.2 mph 16.1 mph N/A   Scattered Clouds
5:46 AM 77.0 °F - 71.6 °F 83% 29.95 in 10.0 mi SSE 5.8 mph - N/A   Mostly Cloudy
5:53 AM 77.0 °F - 71.6 °F 83% 29.95 in 10.0 mi South 6.9 mph - N/A   Mostly Cloudy
6:42 AM 77.0 °F - 71.6 °F 83% 29.96 in 10.0 mi South 5.8 mph - N/A   Mostly Cloudy
6:53 AM 77.0 °F - 72.0 °F 84% 29.96 in 9.0 mi SSE 5.8 mph - N/A   Mostly Cloudy
7:38 AM 78.8 °F - 71.6 °F 78% 29.97 in 10.0 mi South 5.8 mph - N/A   Mostly Cloudy
7:53 AM 78.1 °F - 72.0 °F 81% 29.98 in 10.0 mi South 8.1 mph - N/A   Mostly Cloudy
8:18 AM 78.8 °F - 71.6 °F 78% 29.98 in 10.0 mi South 11.5 mph 17.3 mph N/A   Overcast
8:39 AM 80.6 °F 84.6 °F 71.6 °F 74% 29.98 in 10.0 mi South 11.5 mph 21.9 mph N/A   Overcast
8:53 AM 80.6 °F 84.6 °F 71.6 °F 74% 29.99 in 10.0 mi SSE 9.2 mph 19.6 mph N/A   Overcast
9:41 AM 82.4 °F 87.2 °F 71.6 °F 70% 29.98 in 10.0 mi South 11.5 mph 21.9 mph N/A   Overcast
9:53 AM 82.0 °F 86.7 °F 72.0 °F 71% 29.99 in 10.0 mi South 13.8 mph 19.6 mph N/A   Mostly Cloudy
10:03 AM 80.6 °F 84.6 °F 71.6 °F 74% 29.98 in 10.0 mi South 10.4 mph 20.7 mph N/A   Scattered Clouds
10:53 AM 84.0 °F 89.6 °F 72.0 °F 67% 29.98 in 10.0 mi South 11.5 mph 21.9 mph N/A   Mostly Cloudy
11:04 AM 84.2 °F 89.6 °F 71.6 °F 66% 29.98 in 10.0 mi South 15.0 mph 23.0 mph N/A   Mostly Cloudy
11:27 AM 84.2 °F 89.6 °F 71.6 °F 66% 29.97 in 10.0 mi South 13.8 mph 23.0 mph N/A   Mostly Cloudy
11:53 AM 84.0 °F 89.6 °F 72.0 °F 67% 29.98 in 10.0 mi South 15.0 mph 20.7 mph N/A   Mostly Cloudy
12:12 PM 84.2 °F 89.6 °F 71.6 °F 66% 29.98 in 10.0 mi South 16.1 mph 23.0 mph N/A   Mostly Cloudy
12:53 PM 84.9 °F 90.1 °F 71.1 °F 63% 29.97 in 10.0 mi South 15.0 mph 24.2 mph N/A   Mostly Cloudy
1:42 PM 84.2 °F 89.6 °F 71.6 °F 66% 29.96 in 10.0 mi South 9.2 mph 21.9 mph N/A   Mostly Cloudy
1:53 PM 84.0 °F 89.0 °F 71.1 °F 65% 29.96 in 10.0 mi South 12.7 mph 20.7 mph N/A   Mostly Cloudy
2:53 PM 87.1 °F 92.8 °F 71.1 °F 59% 29.95 in 10.0 mi South 13.8 mph 21.9 mph N/A   Partly Cloudy
3:53 PM 86.0 °F 91.5 °F 71.1 °F 61% 29.94 in 8.0 mi South 12.7 mph 19.6 mph N/A   Clear
4:53 PM 84.0 °F 89.0 °F 71.1 °F 65% 29.92 in 10.0 mi South 12.7 mph 17.3 mph N/A   Partly Cloudy
5:53 PM 84.0 °F 89.0 °F 71.1 °F 65% 29.91 in 10.0 mi South 12.7 mph - N/A   Clear
6:53 PM 82.9 °F 88.0 °F 72.0 °F 69% 29.88 in 10.0 mi SSE 9.2 mph 18.4 mph N/A   Scattered Clouds
7:53 PM 80.1 °F 83.8 °F 72.0 °F 76% 29.89 in 10.0 mi SSE 12.7 mph 18.4 mph N/A   Partly Cloudy
8:53 PM 78.8 °F - 73.4 °F 83% 29.90 in 10.0 mi South 10.4 mph - N/A   Scattered Clouds
9:09 PM 78.8 °F - 73.4 °F 83% 29.90 in 10.0 mi South 9.2 mph - N/A   Mostly Cloudy
9:50 PM 78.8 °F - 73.4 °F 83% 29.91 in 10.0 mi SSE 8.1 mph - N/A   Mostly Cloudy
9:53 PM 79.0 °F - 73.0 °F 82% 29.91 in 10.0 mi SSE 8.1 mph - N/A   Mostly Cloudy
10:53 PM 78.1 °F - 73.9 °F 87% 29.92 in 10.0 mi SSE 5.8 mph - N/A   Overcast
11:53 PM 78.1 °F - 73.0 °F 84% 29.92 in 10.0 mi Variable 6.9 mph - N/A   Overcast